• MPC Preparation (Info)

  • MPEC 2023-P09 : 2014 NB96

    The following Minor Planet Electronic Circular may be linked-to from your own Web pages, but must not otherwise be redistributed electronically.

    A form allowing access to any MPEC is at the bottom of this page.


    Read MPEC 2023-P08 Read MPEC 2023-P10


    M.P.E.C. 2023-P09                                Issued 2023 August 3, 02:40 UT
    
         The Minor Planet Electronic Circulars contain information on unusual
             minor planets, routine data on comets and natural satellites,
             and occasional editorial announcements.  They are published
        on behalf of Division F of the International Astronomical Union by the
              Minor Planet Center, Smithsonian Astrophysical Observatory,
                              Cambridge, MA 02138, U.S.A.
    			  
                 Prepared using the Tamkin Foundation Computer Network
    
                                  MPC@CFA.HARVARD.EDU
                URL https://www.minorplanetcenter.net/    ISSN 1523-6714
    
                                    2014 NB96                                
    
    
    Observations:
         K14N96B*ZC2014 07 01.46785 19 49 37.44 -23 44 03.8          22.2 w EP009F51
         K14N96B ZC2014 07 01.48143 19 49 37.37 -23 44 04.0          22.5 w EP009F51
         K14N96B ZC2014 07 01.49504 19 49 37.31 -23 44 04.0          22.3 w EP009F51
         K14N96B ZC2014 07 01.50867 19 49 37.25 -23 44 04.2          22.5 w EP009F51
         K14N96B ZC2014 07 03.45337 19 49 27.82 -23 44 25.2          22.2 w EP009F51
         K14N96B ZC2014 07 03.4675  19 49 27.73 -23 44 25.2          22.6 w EP009F51
         K14N96B ZC2014 07 03.48168 19 49 27.67 -23 44 25.5          22.3 w EP009F51
         K14N96B ZC2014 07 03.49584 19 49 27.61 -23 44 25.5          22.5 w EP009F51
         K14N96B ZC2014 08 28.30552 19 45 06.03 -23 52 05.0          22.7 w EP009F51
         K14N96B ZC2014 08 28.33964 19 45 05.91 -23 52 04.9          22.4 w EP009F51
         K14N96B ZC2017 06 21.51859 20 05 24.17 -22 11 55.3          22.1 w EP009F51
         K14N96B ZC2017 06 21.52936 20 05 24.12 -22 11 55.6          22.3 w EP009F51
         K14N96B ZC2017 06 21.54015 20 05 24.07 -22 11 55.6          22.2 w EP009F51
         K14N96B ZC2017 06 21.55094 20 05 24.02 -22 11 55.9          22.6 w EP009F51
         K14N96B ZC2017 06 24.50432 20 05 11.27 -22 12 29.0          22.4 w EP009F51
         K14N96B ZC2017 06 24.51535 20 05 11.22 -22 12 29.1          22.5 w EP009F51
         K14N96B ZC2017 06 24.52637 20 05 11.17 -22 12 29.1          22.2 w EP009F51
         K14N96B ZC2017 06 24.53738 20 05 11.13 -22 12 29.4          22.2 w EP009F51
         K14N96B ZC2017 08 12.3117  20 01 15.34 -22 21 42.3          22.4 w EP009F51
         K14N96B ZC2017 08 12.32364 20 01 15.29 -22 21 42.5          22.3 w EP009F51
    
    Observer details:
    F51 Pan-STARRS 1, Haleakala.  Observers J. Bulger, T. Lowe, A. Schultz, I.
        Smith, T. Goggia, N. Primak, J. Thiel, S. Watters.  Measurers J.
        Kurlander, M. Holman, M. Payne, A. Heinze, P. Bernardinelli, M. Lackner.
        1.8-m Ritchey-Chretien + CCD.
    
    Orbital elements:
    2014 NB96                                                                       
    Epoch 2023 Sept. 13.0 TT = JDT 2460200.5                Alexandersen            
    M 260.88153              (2000.0)            P               Q                  
    n   0.00365177     Peri.  108.85802     +0.55199383     -0.81573132             
    a  41.7638745      Node   306.40770     +0.66110545     +0.55448031             
    e   0.0937384      Incl.   12.40375     +0.50817556     +0.16472398             
    P 270              H    6.11          G   0.15           U   6                  
    Residuals in seconds of arc
    140701 F51  0.0   0.0     140703 F51  0.1+  0.1+    170624 F51  0.0   0.1-
    140701 F51  0.1-  0.0     140828 F51  0.0   0.3-    170624 F51  0.0   0.0
    140701 F51  0.0   0.1+    140828 F51  0.1+  0.1-    170624 F51  0.1-  0.1+
    140701 F51  0.1+  0.1+    170621 F51  0.1+  0.2+    170624 F51  0.1+  0.1-
    140703 F51  0.1+  0.1-    170621 F51  0.0   0.0     170812 F51  0.0   0.0
    140703 F51  0.2-  0.1+    170621 F51  0.0   0.1+    170812 F51  0.1+  0.1-
    140703 F51  0.0   0.0     170621 F51  0.1-  0.1-
    
    Ephemeris:
    2014 NB96                a,e,i = 41.76, 0.09, 12                 q = 37.8490
    Date    TT    R. A. (2000) Decl.     Delta      r    Elong.  Phase     V
    2023 07 04    20 34 14.5 -18 55 24  41.8230 42.7491   155.3     0.6    22.5
    ...
    2023 07 19    20 33 05.1 -18 58 54  41.7446 42.7456   169.9     0.2    22.4
    ...
    2023 07 27    20 32 26.1 -19 00 52  41.7289 42.7437   177.7     0.1    22.4
    ...
    2023 08 02    20 31 56.7 -19 02 20  41.7293 42.7423   176.4     0.1    22.4
    2023 08 03    20 31 51.8 -19 02 35  41.7304 42.7421   175.4     0.1    22.4
    2023 08 04    20 31 46.9 -19 02 50  41.7318 42.7418   174.5     0.1    22.4
    ...
    2023 08 10    20 31 17.7 -19 04 16  41.7461 42.7404   168.6     0.3    22.4
    ...
    2023 08 18    20 30 40.1 -19 06 07  41.7813 42.7385   160.8     0.4    22.5
    ...
    2023 09 02    20 29 35.8 -19 09 11  41.8942 42.7350   146.0     0.8    22.5
    
    M. P. C. Staff               (C) Copyright 2023 MPC           M.P.E.C. 2023-P09
    


    Read MPEC 2023-P08 Read MPEC 2023-P10


    MPEC number:

    Enter an MPEC number in one of the following forms:

    • 1997-B01 (the full form)
    • J97B01 (the packed version of the full form)
    • B01 (the abbreviated form)